Back to catalog

FENGYUN 1C DEB

AliveSSO
NORAD 30237·DEBRIS·🇨🇳 China

Launched May 10, 1999 from Taiyuan Satellite Launch Center

Loading…

Next Passes (next 24 hours)

TLE

FreshSource: Space-Track

Epoch: Sep 14, 2026, 07:23 UTC

1 30237U 99025WW  26257.30796926  .00003875  00000-0  11377-2 0  9998
2 30237  98.8340  14.8204 0014555 203.8833 183.1926 14.44337123 16699

Track FENGYUN 1C DEB in real time with AllMySat

Download on the App Store